Location: ?ejkovice
(49.0137°N, 14.3821°E)
Time: 18:54:23
(UTC+00:00)

Cosmos 968 Rocket - Pass Details

Date: 04 August 2024
Orbit: 738 x 767 km, 74.0° (Epoch: 12 September)

Event Time Altitude Azimuth Distance (km) Brightness Sun altitude
Rises 22:26:17 0° 323° (NW) 3,230 7.8 -23.4°
Reaches altitude 10° 22:29:27 10° 303° (WNW) 2,292 6.5 -23.5°
Maximum altitude 22:32:39 17° 265° (W) 1,862 5.5 -23.6°
Enters shadow 22:33:57 15° 247° (WSW) 1,935 5.4 -23.6°
